Погода в Тосно

Россия / Санкт-Петербург и Ленинградская область     59°32′26″N   30°52′39″E
темп.,
°C
ветер,
м/с
пор.,
м/с
влажн.,
%
обл.,
%
осадки,
мм/ч
давл.,
гПа
погр.,
м
30 июня, чт
чт3000:00+14юв11621 0.0 102111
03:00+13всв116555 0.0 102110
06:00+15св1162100 0.0 102152
09:00+23св12395 0.0 1021514
12:00+27св23275 0.0 10211859
15:00+28св33239 0.0 10202012
18:00+27ссв332739 0.0 10201333
21:00+19св25565 0.0 102197
1 июля, пт
пт100:00+16св116244 0.0 102111
03:00+15ю00625 0.0 102211
06:00+17з11615 0.0 102236
09:00+25с113811 0.0 1022460
12:00+29с233159 0.0 10211848
15:00+30св3330100 0.0 10212399
18:00+28ссв3234100 0.0 10211081
21:00+22св2259100 0.0 102022
2 июля, сб
сб200:00+19в1169100 0.0 102111
03:00+18в1178100 0.0 102111
06:00+20всв1173100 0.0 102139
09:00+26юв0148100 0.0 1021420
12:00+31ююв113399 0.0 10202223
15:00+32ю2228100 0.0 10183061
18:00+27зсз2648100 0.0 1018299
21:00+24сз116299 0.0 101812
3 июля, вс
вс300:00+21зсз117066 0.0 101811
03:00+19зюз227095 0.0 101713
06:00+20юз246661 0.0 101794
09:00+27ююз1248100 0.0 1017589
12:00+30ююз2239100 0.0 10161852
15:00+31ююз2237100 0.0 10152191
18:00+20сз358799 0.9 101699
21:00+19сз279597 1.6 1017190
4 июля, пн
пн400:00+17зсз258762 0.3 1017154
03:00+15з227998 0.3 101726
06:00+16зюз137054 0.0 101792
09:00+23юз2345100 0.0 1016429
12:00+27зюз243568 0.0 10161362
15:00+28зсз5437100 0.0 10151774
18:00+18зсз2684100 0.1 1015162
21:00+19з1278100 0.1 101448